Regional Weather Roundup
Issued by NWS

Home | Current Version | Previous Version | Text Only | Print | Product List | Glossary On
Versions: 1 2 3 4 5 6 7 8 9 10 11 12 13 14 15 16 17 18 19 20 21 22 23 24 25 26 27
000
ASUS45 KTFX 300110
RWRMT
MONTANA REGIONAL WEATHER ROUNDUP
NATIONAL WEATHER SERVICE GREAT FALLS MT
700 PM MDT MON AUG 29 2016

NOTE: "FAIR" INDICATES FEW OR NO CLOUDS BELOW 12000 FEET WITH NO
SIGNIFICANT WEATHER AND/OR OBSTRUCTIONS TO VISIBILITY.

MTZ001>007-043-300200-
WEST OF THE DIVIDE

CITY           SKY/WX    TMP DP  RH WIND       PRES   REMARKS
KALISPELL      PTSUNNY   82  46  28 N16       29.96F
MISSOULA       PTSUNNY   90  36  14 S6        29.98F
BUTTE          CLOUDY    81  34  18 E9        30.18F
MULLAN PASS    MOSUNNY   74  34  23 SW10G18   30.20S
DEER LODGE       N/A     79  37  22 W3        30.12F
EUREKA           N/A     90  41  18 S13G30    29.99R
HAMILTON         N/A     82  43  24 NE8       30.03S
LIBBY            N/A     90  45  20 SE3       29.94F
PLAINS           N/A     86  45  23 CALM      29.96F
RONAN            N/A     81  51  35 NE5       30.06F
THOMPSON FALLS   N/A     93  43  17 E6        29.96
$$

MTZ008-052>055-300200-
SOUTHWEST MONTANA

CITY           SKY/WX    TMP DP  RH WIND       PRES   REMARKS
DILLON         CLOUDY    80  38  22 NE3       30.15S
W YELLOWSTONE  CLOUDY    75  10   8 SW6       30.31F
ENNIS          SUNNY     82  37  20 NW10      30.22S
THREE FORKS      N/A     86  86 100 CALM      30.09F HX 112
TWIN BRIDGES     N/A     86  34  15 CALM      30.11F
$$

MTZ009-010-012-014-046-048-049-054-300200-
EAST SLOPES AND CENTRAL MONTANA

CITY           SKY/WX    TMP DP  RH WIND       PRES   REMARKS
CUT BANK       MOSUNNY   84  40  21 SE17      30.09F
GREAT FALLS    MOSUNNY   85  37  18 E15       30.09F
HELENA         CLOUDY    88  36  15 E7        30.06F
CHOTEAU          N/A     84  36  17 E17       30.10F
$$

MTZ011-013-016-021-045-047-050-051-300200-
NORTH CENTRAL MONTANA

CITY           SKY/WX    TMP DP  RH WIND       PRES   REMARKS
HAVRE          CLEAR     83  48  29 E10       30.09F
LEWISTOWN      CLEAR     83  44  25 E9        30.17F
N BAR RANCH      N/A     79  45  29 E10       30.23S
CHINOOK          N/A     84  52  32 CALM      30.09F
$$

MTZ017>020-022>027-061-062-300200-
NORTHEAST MONTANA

CITY           SKY/WX    TMP DP  RH WIND       PRES   REMARKS
GLASGOW        CLEAR     82  46  28 SE10      30.13F
JORDAN           N/A     84  46  26 SE10      30.13F
SIDNEY         CLEAR     79  47  32 E6        30.18F
WOLF POINT     CLEAR     83  46  27 E7        30.16F
PLENTYWOOD       N/A     77  41  27 E3        30.21F
POPLAR           N/A     81  45  28 E6        30.18F
SCOBEY           N/A     77  41  27 CALM      30.18F
$$

MTZ028>42-056>058-300200-
SOUTHCENTRAL AND SOUTHEAST MONTANA

CITY           SKY/WX    TMP DP  RH WIND       PRES   REMARKS
BAKER          CLEAR     78  43  28 SE14      30.23S
BILLINGS       MOCLDY    83  49  30 E7        30.14F
LIVINGSTON     SUNNY     80  46  30 E18       30.16F
MILES CITY     CLEAR     86  45  23 SE12      30.14F
EKALAKA          N/A     77  44  30 E10       30.19S
FORSYTH          N/A     88  46  23 E8        30.12F
LAUREL           N/A     83  47  28 N5        30.12F
ROUNDUP          N/A     84  45  25 E6        30.06F
$$

REGIONAL REPORTS...DAKOTAS

CITY           SKY/WX    TMP DP  RH WIND       PRES   REMARKS
WILLISTON      CLEAR     80  39  23 E3        30.21F
MINOT          CLEAR     74  46  36 NE3       30.22S
DICKINSON      CLEAR     73  43  33 E9        30.22S
CROSBY           N/A     72  41  33 NE3       30.25S
WATFORD CITY     N/A     77  45  31 SE7       30.22S
BISMARCK       CLEAR     75  48  38 NE7       30.22S
GRAND FORKS    PTCLDY    69  53  56 NW7       30.16S
FARGO          CLEAR     74  61  63 N8        30.14S
BUFFALO SD       N/A     78  45  30 E10       30.17S
RAPID CITY     CLEAR     73  59  61 E6        30.22F
$$

REGIONAL REPORTS...WYOMING/IDAHO/WASHINGTON

CITY           SKY/WX    TMP DP  RH WIND       PRES   REMARKS
GILLETTE       CLEAR     82  43  25 SE10      30.22S
SHERIDAN       CLEAR     84  46  26 SE5       30.18F
BUFFALO WY     CLEAR     82  39  21 S6        30.27S
CODY           MOCLDY    79  37  22 NW9G25    30.26R
YELLOWSTONE LA   N/A     71  24  17 CALM      30.42S
IDAHO FALLS    CLOUDY    84  34  16 SW7       30.17S
SALMON         CLOUDY    73  52  46 S7        30.07S
BOISE          CLOUDY    89  33  13 N6        30.00F
SPOKANE        MOSUNNY   90  39  16 W9        29.94F
$$

REGIONAL REPORTS...ALBERTA

CITY           SKY/WX    TMP DP  RH WIND       PRES   REMARKS
EDMONTON       SUNNY     64  46  52 E12       30.15S
CALGARY        PTSUNNY   70  50  49 E10G17    30.10F
LETHBRIDGE     MOSUNNY   81  45  28 SE8G17    30.05F
MEDICINE HAT   MOSUNNY   79  50  36 E6        30.09F
$$

REGIONAL REPORTS...SASKATCHEWAN

CITY           SKY/WX    TMP DP  RH WIND       PRES   REMARKS
SWIFT CURRENT  CLEAR     70  48  46 E10       30.18F
REGINA         MOCLDY    68  43  40 CALM      30.22S
SASKATOON      PTCLDY    66  43  42 N2        30.23S
$$




USA.gov is the U.S. government's official web portal to all federal, state and local government web resources and services.